Time,TemperatureF,DewpointF,PressureIn,WindDirection,WindDirectionDegrees,WindSpeedMPH,WindSpeedGustMPH,Humidity,HourlyPrecipIn,Conditions,Clouds,dailyrainin,SoftwareType,DateUTC
2013-09-28 00:13:00,65.0,45.0,29.70,West,268,0.0,-999.0,48,-99.99,,,-99.99,,2013-09-28 06:13:00,
2013-09-28 00:22:00,65.0,45.0,29.70,West,280,1.0,-999.0,48,-99.99,,,-99.99,,2013-09-28 06:22:00,
2013-09-28 00:42:00,64.0,44.0,29.70,North,355,2.0,-999.0,49,-99.99,,,-99.99,,2013-09-28 06:42:00,
2013-09-28 00:52:00,64.0,45.0,29.71,North,355,1.0,-999.0,51,-99.99,,,-99.99,,2013-09-28 06:52:00,
2013-09-28 01:12:00,63.0,44.0,29.71,North,355,1.0,-999.0,50,-99.99,,,-99.99,,2013-09-28 07:12:00,
2013-09-28 01:22:00,64.0,42.0,29.72,North,360,1.0,-999.0,45,-99.99,,,-99.99,,2013-09-28 07:22:00,
2013-09-28 01:42:00,63.0,42.0,29.72,North,350,0.0,-999.0,46,-99.99,,,-99.99,,2013-09-28 07:42:00,
2013-09-28 01:52:00,63.0,41.0,29.72,NNW,342,2.0,-999.0,44,-99.99,,,-99.99,,2013-09-28 07:52:00,
2013-09-28 02:13:00,63.0,41.0,29.73,NNW,342,0.0,-999.0,45,-99.99,,,-99.99,,2013-09-28 08:13:00,
2013-09-28 02:21:00,62.0,41.0,29.74,NNW,342,0.0,-999.0,46,-99.99,,,-99.99,,2013-09-28 08:21:00,
2013-09-28 02:43:00,62.0,41.0,29.74,NNW,342,0.0,-999.0,46,-99.99,,,-99.99,,2013-09-28 08:43:00,
2013-09-28 02:53:00,62.0,40.0,29.75,NNW,342,1.0,-999.0,44,-99.99,,,-99.99,,2013-09-28 08:53:00,
2013-09-28 03:11:00,61.0,38.0,29.75,NNW,342,1.0,-999.0,43,-99.99,,,-99.99,,2013-09-28 09:11:00,
2013-09-28 03:22:00,62.0,35.0,29.75,NNW,343,2.0,-999.0,36,-99.99,,,-99.99,,2013-09-28 09:22:00,
2013-09-28 03:54:00,62.0,34.0,29.76,NNW,344,1.0,-999.0,35,-99.99,,,-99.99,,2013-09-28 09:54:00,
2013-09-28 04:13:00,60.0,35.0,29.76,NNW,344,0.0,-999.0,39,-99.99,,,-99.99,,2013-09-28 10:13:00,
2013-09-28 04:22:00,59.0,39.0,29.77,NNW,344,0.0,-999.0,48,-99.99,,,-99.99,,2013-09-28 10:22:00,
2013-09-28 04:43:00,59.0,40.0,29.77,NNW,344,0.0,-999.0,49,-99.99,,,-99.99,,2013-09-28 10:43:00,
2013-09-28 04:52:00,58.0,39.0,29.78,NNW,344,1.0,-999.0,49,-99.99,,,-99.99,,2013-09-28 10:52:00,
2013-09-28 05:12:00,57.0,39.0,29.79,NNW,344,1.0,-999.0,51,-99.99,,,-99.99,,2013-09-28 11:12:00,
2013-09-28 05:22:00,57.0,39.0,29.80,NNW,344,1.0,-999.0,51,-99.99,,,-99.99,,2013-09-28 11:22:00,
2013-09-28 05:52:00,58.0,39.0,29.81,NNW,344,1.0,-999.0,49,-99.99,,,-99.99,,2013-09-28 11:52:00,
2013-09-28 06:12:00,57.0,38.0,29.82,NNW,344,1.0,-999.0,48,-99.99,,,-99.99,,2013-09-28 12:12:00,
2013-09-28 06:22:00,57.0,38.0,29.83,NNW,344,1.0,-999.0,48,-99.99,,,-99.99,,2013-09-28 12:22:00,
2013-09-28 06:42:00,56.0,37.0,29.84,NNW,344,1.0,-999.0,49,-99.99,,,-99.99,,2013-09-28 12:42:00,
2013-09-28 06:52:00,56.0,37.0,29.85,NNW,344,1.0,-999.0,49,-99.99,,,-99.99,,2013-09-28 12:52:00,
2013-09-28 07:12:00,56.0,37.0,29.86,NNW,344,1.0,-999.0,49,-99.99,,,-99.99,,2013-09-28 13:12:00,
2013-09-28 07:22:00,55.0,37.0,29.87,NNW,344,0.0,-999.0,50,-99.99,,,-99.99,,2013-09-28 13:22:00,
2013-09-28 07:52:00,54.0,35.0,29.88,NNW,340,1.0,-999.0,49,-99.99,,,-99.99,,2013-09-28 13:52:00,
2013-09-28 08:12:00,55.0,36.0,29.90,NNW,340,0.0,-999.0,48,-99.99,,,-99.99,,2013-09-28 14:12:00,
2013-09-28 08:21:00,56.0,36.0,29.90,NW,315,1.0,-999.0,46,-99.99,,,-99.99,,2013-09-28 14:21:00,
2013-09-28 08:42:00,56.0,35.0,29.91,NW,304,2.0,-999.0,45,-99.99,,,-99.99,,2013-09-28 14:42:00,
2013-09-28 08:52:00,58.0,35.0,29.92,NW,304,1.0,-999.0,42,-99.99,,,-99.99,,2013-09-28 14:52:00,
2013-09-28 09:12:00,59.0,34.0,29.93,NW,304,1.0,-999.0,39,-99.99,,,-99.99,,2013-09-28 15:12:00,
2013-09-28 09:23:00,60.0,34.0,29.93,NW,304,1.0,-999.0,38,-99.99,,,-99.99,,2013-09-28 15:23:00,
2013-09-28 09:44:00,61.0,34.0,29.94,WNW,302,2.0,-999.0,36,-99.99,,,-99.99,,2013-09-28 15:44:00,
2013-09-28 09:54:00,62.0,33.0,29.94,WNW,300,3.0,-999.0,34,-99.99,,,-99.99,,2013-09-28 15:54:00,
2013-09-28 10:14:00,64.0,34.0,29.95,WNW,297,2.0,-999.0,32,-99.99,,,-99.99,,2013-09-28 16:14:00,
2013-09-28 10:24:00,67.0,33.0,29.95,NNW,329,2.0,-999.0,28,-99.99,,,-99.99,,2013-09-28 16:24:00,
2013-09-28 10:43:00,67.0,26.0,29.96,NNW,338,4.0,-999.0,21,-99.99,,,-99.99,,2013-09-28 16:43:00,
2013-09-28 10:54:00,68.0,27.0,29.96,NNW,343,3.0,-999.0,21,-99.99,,,-99.99,,2013-09-28 16:54:00,
2013-09-28 11:13:00,68.0,27.0,29.96,NNE,13,3.0,-999.0,21,-99.99,,,-99.99,,2013-09-28 17:13:00,
2013-09-28 11:23:00,70.0,27.0,29.96,North,360,3.0,-999.0,20,-99.99,,,-99.99,,2013-09-28 17:23:00,
2013-09-28 11:43:00,69.0,26.0,29.96,NNE,32,4.0,-999.0,20,-99.99,,,-99.99,,2013-09-28 17:43:00,
2013-09-28 11:52:00,70.0,26.0,29.96,North,355,4.0,-999.0,19,-99.99,,,-99.99,,2013-09-28 17:52:00,
2013-09-28 12:12:00,71.0,27.0,29.96,North,9,4.0,-999.0,19,-99.99,,,-99.99,,2013-09-28 18:12:00,
2013-09-28 12:22:00,71.0,28.0,29.96,NNW,342,4.0,-999.0,20,-99.99,,,-99.99,,2013-09-28 18:22:00,
2013-09-28 12:42:00,71.0,28.0,29.95,North,355,5.0,-999.0,20,-99.99,,,-99.99,,2013-09-28 18:42:00,
2013-09-28 12:52:00,71.0,27.0,29.95,NNE,19,4.0,-999.0,19,-99.99,,,-99.99,,2013-09-28 18:52:00,
2013-09-28 13:11:00,72.0,27.0,29.95,NE,42,5.0,-999.0,19,-99.99,,,-99.99,,2013-09-28 19:11:00,
2013-09-28 13:22:00,72.0,27.0,29.94,North,11,4.0,-999.0,19,-99.99,,,-99.99,,2013-09-28 19:22:00,
2013-09-28 13:42:00,72.0,26.0,29.94,North,9,4.0,-999.0,18,-99.99,,,-99.99,,2013-09-28 19:42:00,
2013-09-28 13:52:00,74.0,26.0,29.93,North,5,3.0,-999.0,17,-99.99,,,-99.99,,2013-09-28 19:52:00,
2013-09-28 14:12:00,74.0,29.0,29.93,NNW,337,3.0,-999.0,19,-99.99,,,-99.99,,2013-09-28 20:12:00,
2013-09-28 14:22:00,74.0,28.0,29.92,North,5,2.0,-999.0,18,-99.99,,,-99.99,,2013-09-28 20:22:00,
2013-09-28 14:43:00,75.0,29.0,29.91,NNW,342,2.0,-999.0,18,-99.99,,,-99.99,,2013-09-28 20:43:00,
2013-09-28 14:53:00,75.0,29.0,29.91,North,355,3.0,-999.0,18,-99.99,,,-99.99,,2013-09-28 20:53:00,
2013-09-28 15:12:00,74.0,29.0,29.91,North,355,1.0,-999.0,19,-99.99,,,-99.99,,2013-09-28 21:12:00,
2013-09-28 15:23:00,75.0,30.0,29.91,North,360,1.0,-999.0,19,-99.99,,,-99.99,,2013-09-28 21:23:00,
2013-09-28 15:44:00,75.0,29.0,29.91,North,349,2.0,-999.0,18,-99.99,,,-99.99,,2013-09-28 21:44:00,
2013-09-28 15:55:00,75.0,30.0,29.90,NW,323,2.0,-999.0,19,-99.99,,,-99.99,,2013-09-28 21:55:00,
2013-09-28 16:13:00,74.0,28.0,29.90,NNW,329,2.0,-999.0,18,-99.99,,,-99.99,,2013-09-28 22:13:00,
2013-09-28 16:23:00,77.0,30.0,29.90,WNW,286,2.0,-999.0,18,-99.99,,,-99.99,,2013-09-28 22:23:00,
2013-09-28 16:43:00,76.0,28.0,29.89,WNW,295,2.0,-999.0,17,-99.99,,,-99.99,,2013-09-28 22:43:00,
2013-09-28 16:54:00,75.0,30.0,29.89,NE,34,4.0,-999.0,19,-99.99,,,-99.99,,2013-09-28 22:54:00,
2013-09-28 17:12:00,76.0,28.0,29.89,NE,34,2.0,-999.0,17,-99.99,,,-99.99,,2013-09-28 23:12:00,
2013-09-28 17:22:00,76.0,28.0,29.89,NE,34,2.0,-999.0,17,-99.99,,,-99.99,,2013-09-28 23:22:00,
2013-09-28 17:43:00,77.0,30.0,29.90,NNE,28,1.0,-999.0,18,-99.99,,,-99.99,,2013-09-28 23:43:00,
2013-09-28 17:53:00,76.0,29.0,29.90,NNE,28,1.0,-999.0,18,-99.99,,,-99.99,,2013-09-28 23:53:00,
2013-09-28 18:11:00,76.0,29.0,29.90,NNE,26,0.0,-999.0,18,-99.99,,,-99.99,,2013-09-29 00:11:00,
2013-09-28 18:22:00,75.0,29.0,29.90,NNE,23,1.0,-999.0,18,-99.99,,,-99.99,,2013-09-29 00:22:00,
2013-09-28 18:43:00,75.0,29.0,29.91,NNW,336,3.0,-999.0,18,-99.99,,,-99.99,,2013-09-29 00:43:00,
2013-09-28 18:52:00,74.0,26.0,29.91,NNW,331,2.0,-999.0,17,-99.99,,,-99.99,,2013-09-29 00:52:00,
2013-09-28 19:12:00,73.0,28.0,29.91,NW,325,1.0,-999.0,19,-99.99,,,-99.99,,2013-09-29 01:12:00,
2013-09-28 19:22:00,71.0,32.0,29.92,NW,325,1.0,-999.0,24,-99.99,,,-99.99,,2013-09-29 01:22:00,
2013-09-28 19:43:00,69.0,33.0,29.92,NW,325,1.0,-999.0,26,-99.99,,,-99.99,,2013-09-29 01:43:00,
2013-09-28 19:52:00,69.0,32.0,29.92,NNW,330,2.0,-999.0,25,-99.99,,,-99.99,,2013-09-29 01:52:00,
2013-09-28 20:12:00,67.0,32.0,29.93,NNW,336,3.0,-999.0,27,-99.99,,,-99.99,,2013-09-29 02:12:00,
2013-09-28 20:22:00,67.0,32.0,29.93,NNW,336,3.0,-999.0,27,-99.99,,,-99.99,,2013-09-29 02:22:00,
2013-09-28 20:43:00,67.0,32.0,29.93,NNW,339,2.0,-999.0,27,-99.99,,,-99.99,,2013-09-29 02:43:00,
2013-09-28 20:53:00,66.0,31.0,29.95,NNW,341,2.0,-999.0,27,-99.99,,,-99.99,,2013-09-29 02:53:00,
2013-09-28 21:12:00,67.0,31.0,29.95,North,349,3.0,-999.0,26,-99.99,,,-99.99,,2013-09-29 03:12:00,
2013-09-28 21:23:00,66.0,31.0,29.96,North,360,2.0,-999.0,27,-99.99,,,-99.99,,2013-09-29 03:23:00,
2013-09-28 21:55:00,65.0,30.0,29.96,NNE,24,3.0,-999.0,27,-99.99,,,-99.99,,2013-09-29 03:55:00,
2013-09-28 22:02:00,-999.0,-99.9,29.97,NNE,24,2.0,-999.0,-999,-99.99,,,-99.99,,2013-09-29 04:02:00,
2013-09-28 22:14:00,65.0,29.0,29.97,NNE,24,2.0,-999.0,26,-99.99,,,-99.99,,2013-09-29 04:14:00,
2013-09-28 22:24:00,66.0,29.0,29.98,NNE,28,3.0,-999.0,25,-99.99,,,-99.99,,2013-09-29 04:24:00,
2013-09-28 22:54:00,65.0,30.0,29.98,NNE,28,2.0,-999.0,27,-99.99,,,-99.99,,2013-09-29 04:54:00,
2013-09-28 23:13:00,63.0,30.0,29.98,NNE,28,0.0,-999.0,29,-99.99,,,-99.99,,2013-09-29 05:13:00,
2013-09-28 23:22:00,62.0,29.0,29.99,NNE,28,0.0,-999.0,28,-99.99,,,-99.99,,2013-09-29 05:22:00,
2013-09-28 23:52:00,61.0,32.0,30.00,NNE,28,0.0,-999.0,34,-99.99,,,-99.99,,2013-09-29 05:52:00,